User: anonymous   Login
Location: Unspecified
(0.0000°N, 0.0000°E)
Time: 23:43:54
(UTC+01:00)
Language:

Landsat 4 - Orbit

View from above orbital plane
View from above orbital plane
View from above satellite
View from above satellite

Ground track
Ground track

The orbit data is extracted from the following two-line orbital elements,

1 13367U 82072A   17055.93810671 +.00001291 +00000-0 +71905-4 0  9991
2 13367 098.2340 209.1973 0012540 218.1975 256.3192 15.15670216293336
Epoch (UTC): 24 February 2017 22:30:52
Eccentricity: 0.0012540
inclination: 98.2340°
perigee height: 510 km
apogee height: 527 km
right ascension of ascending node: 209.1973°
argument of perigee: 218.1975°
revolutions per day: 15.15670216
mean anomaly at epoch: 256.3192°
orbit number at epoch: 29333

The dashed part of the orbit path shows where the satellite is in the earth's shadow,  

DLR